This is the latest recevied weather packets stored in our database for station/object KI6PPU. If no packets are shown the sender has not sent any weather packets the latest 10 day(s).
| Time | Temp. | Humidity | Pressure | Rain* | Wind** | Luminosity | Snow |
|---|---|---|---|---|---|---|---|
| 1777921858 | 12.22° C | 89% | 1018.2 hPa | 0 mm | - | 92 W/m² | - |
| 1777921554 | 12.22° C | 89% | 1018.1 hPa | 0 mm | - | 122 W/m² | - |
| 1777921250 | 12.22° C | 90% | 1018 hPa | 0.51 mm | - | 164 W/m² | - |
| 1777920948 | 12.22° C | 91% | 1018 hPa | 0.51 mm | - | 179 W/m² | - |
| 1777920644 | 11.67° C | 92% | 1018.1 hPa | 0 mm | - | 179 W/m² | - |
| 1777920340 | 11.67° C | 93% | 1018.1 hPa | 0 mm | - | 131 W/m² | - |
| 1777920035 | 11.67° C | 93% | 1018.1 hPa | 0 mm | - | 111 W/m² | - |
| 1777919732 | 11.67° C | 94% | 1018.1 hPa | 0 mm | - | 108 W/m² | - |
| 1777919431 | 11.67° C | 93% | 1018.1 hPa | 0 mm | - | 98 W/m² | - |
| 1777919127 | 11.11° C | 93% | 1018.3 hPa | 0 mm | - | 88 W/m² | - |
| 1777918825 | 11.11° C | 94% | 1018.1 hPa | 0 mm | - | 106 W/m² | - |
| 1777918521 | 11.11° C | 95% | 1018.1 hPa | 0 mm | - | 119 W/m² | - |
| 1777918220 | 11.11° C | 95% | 1018.2 hPa | 0 mm | - | 117 W/m² | - |
| 1777917918 | 11.11° C | 95% | 1018.2 hPa | 0 mm | - | 116 W/m² | - |
| 1777917617 | 11.11° C | 95% | 1018.1 hPa | 0 mm | - | 109 W/m² | - |
| 1777917314 | 11.67° C | 96% | 1018.1 hPa | 0 mm | - | 114 W/m² | - |
| 1777917011 | 11.11° C | 95% | 1017.9 hPa | 0 mm | - | 139 W/m² | - |
| 1777916709 | 11.11° C | 96% | 1018 hPa | 0 mm | - | 110 W/m² | - |
| 1777916405 | 11.11° C | 95% | 1018 hPa | 0 mm | - | 93 W/m² | - |
| 1777916102 | 11.11° C | 95% | 1017.8 hPa | 0 mm | - | 84 W/m² | - |
| 1777915800 | 11.11° C | 95% | 1017.8 hPa | 1.27 mm | - | 82 W/m² | - |
| 1777915495 | 11.11° C | 95% | 1017.8 hPa | 3.56 mm | - | 89 W/m² | - |
| 1777915192 | 11.11° C | 94% | 1017.7 hPa | 4.32 mm | - | 79 W/m² | - |
| 1777914889 | 11.11° C | 94% | 1017.6 hPa | 4.83 mm | - | 77 W/m² | - |
| 1777914586 | 11.11° C | 94% | 1017.8 hPa | 4.32 mm | - | 71 W/m² | - |
* Rain latest hour (hover to see other rain measurements)
** Current wind speed in m/s (hover to see current wind gust speed)